Dewpoint
54 54 54 54 54 54 54 55 55 55 55 55 54 54 55 55 55 54 54 54 54 55 55 55 56 56 57 56 57 56 56 51 48 45 42 41 49 56 57 59 62 63 58 26 27 27 27 29 29 30 24 22 22 16 18 18 16 15 16 13 13 13 10 14 8 8 7 5 4 7 7 3 1 2 2 11 20 42 54 56 58 59 59 61 62 64 65 66
54 54 55 55 55 55 55 54 54 54 55 55 55 55 55 55 55 55 55 55 55 55 55 56 56 56 56 56 57 57 55 51 47 48 44 49 58 59 60 62 63 60 48 23 25 27 25 25 28 27 20 19 21 13 15 15 13 16 17 15 13 11 10 16 9 12 3 3 6 8 13 4 3 5 3 18 19 21 52 56 57 58 58 59 61 62 63 65
54 54 55 55 54 54 54 54 54 55 55 55 54 55 55 55 55 55 55 55 55 55 56 56 56 56 57 57 57 57 53 44 33 32 40 60 61 61 60 62 62 58 24 22 26 25 25 25 28 30 25 19 19 11 12 9 11 13 12 10 12 11 10 11 9 8 6 6 7 6 4 5 4 4 8 12 15 17 33 52 56 57 56 58 59 61 62 63
54 54 54 54 54 54 54 54 54 54 54 54 54 54 55 55 55 55 55 55 56 56 56 57 57 57 56 57 57 55 51 25 24 25 28 60 60 61 62 62 61 50 34 30 29 28 30 31 31 28 21 19 19 13 9 9 10 8 8 8 9 10 9 9 10 8 7 6 5 5 5 4 4 6 6 9 20 22 22 31 55 56 57 57 58 59 61 62
53 53 54 54 54 54 54 54 54 54 54 54 54 54 54 55 55 55 55 56 56 56 56 56 57 57 57 57 57 53 34 22 24 28 30 60 60 60 63 63 60 44 36 35 32 32 32 31 30 23 19 17 13 14 13 12 10 7 6 8 9 10 9 10 10 11 10 15 5 11 3 3 7 5 4 13 17 21 24 24 55 57 57 57 57 58 60 61
53 53 54 54 54 54 54 54 54 54 54 54 54 54 55 55 55 55 56 56 57 57 57 57 57 57 57 56 54 51 29 21 25 29 54 61 59 62 63 63 61 40 33 31 28 31 29 29 21 19 13 11 14 13 13 12 9 5 8 6 8 9 8 11 9 9 4 6 4 3 5 7 5 8 8 8 13 14 31 34 57 58 57 57 57 57 58 59
53 53 53 53 54 54 54 54 54 54 54 54 54 54 54 55 55 56 56 57 57 57 57 57 57 57 57 54 50 36 33 33 37 34 50 63 62 63 63 62 58 41 31 28 31 30 31 26 21 18 10 9 9 11 10 10 10 8 7 8 6 8 5 9 6 9 4 4 5 5 9 3 3 5 7 18 25 33 46 54 55 55 55 56 56 56 57 57
53 54 53 54 54 54 54 54 54 54 54 54 54 54 55 55 56 56 56 57 57 58 58 58 57 57 56 49 36 36 32 24 28 37 62 60 58 62 56 47 41 31 28 28 30 29 26 15 12 14 10 7 9 8 11 6 8 8 8 9 13 7 8 10 7 5 6 7 8 7 4 4 5 7 22 22 28 33 39 41 41 42 43 43 46 48 51 54
54 53 53 54 54 54 54 54 54 54 54 54 55 54 55 55 56 56 56 57 57 58 58 58 58 57 56 43 38 26 21 27 37 42 56 43 45 45 37 28 38 31 30 32 31 29 21 14 15 13 9 10 11 12 13 4 2 8 7 11 9 8 10 8 7 11 7 7 7 4 6 8 6 9 20 19 24 32 42 45 47 50 51 51 51 51 50 51
53 54 54 54 54 54 54 54 54 54 55 55 55 55 55 55 55 56 56 57 57 57 58 58 58 56 51 41 29 21 22 26 33 39 44 39 39 38 35 32 36 31 29 26 29 23 16 14 14 15 12 11 13 11 12 4 4 7 9 10 4 3 5 7 2 3 10 6 7 12 15 17 16 20 21 18 31 41 47 49 50 52 53 54 55 56 56 56
53 54 54 54 54 54 54 54 54 55 55 55 55 55 55 55 55 56 56 57 57 57 58 58 57 54 46 36 26 21 26 30 35 32 40 36 33 30 32 34 33 31 30 27 21 20 17 17 19 15 13 10 12 10 7 8 7 6 4 4 3 2 2 2 3 2 2 3 12 17 19 22 23 13 15 24 38 46 46 47 49 51 53 55 57 58 58 59
53 54 54 54 54 54 54 54 55 55 55 55 55 55 55 55 55 55 56 56 57 57 57 58 57 52 43 39 29 24 32 30 34 30 35 33 32 33 34 35 32 31 24 20 19 22 18 16 15 14 11 13 9 10 6 10 7 6 3 1 2 1 -0 -1 1 3 4 2 5 12 18 23 27 23 24 35 40 44 45 45 47 48 50 52 54 55 56 58
53 53 54 54 54 54 54 55 55 55 55 55 55 55 55 55 55 56 56 56 57 58 58 57 55 49 41 32 35 40 44 45 34 32 32 33 32 34 35 32 31 30 23 21 20 22 19 13 15 12 14 10 11 6 9 7 6 9 3 1 0 2 -3 -0 7 3 9 10 5 11 17 23 28 31 34 36 38 42 43 44 45 46 47 48 49 52 53 54
53 54 54 54 54 54 54 55 55 55 55 55 55 55 55 55 55 55 56 55 57 57 58 57 50 44 36 32 34 39 41 34 30 29 31 41 30 29 28 27 30 26 23 20 20 20 19 14 13 13 16 12 14 14 9 10 13 2 5 5 4 5 -0 3 14 15 18 17 24 24 23 26 29 32 33 35 38 42 41 42 43 45 46 48 49 49 48 48
53 53 53 54 53 54 54 55 55 55 55 55 55 54 54 54 55 55 56 56 57 56 58 56 51 38 35 32 35 36 59 27 26 26 33 29 31 26 23 22 25 23 21 21 20 26 18 16 14 12 12 22 14 11 12 10 16 17 6 7 9 5 3 4 25 12 17 22 25 28 27 29 30 31 33 35 38 40 39 40 41 43 45 46 46 45 45 45
53 53 53 53 54 54 54 55 55 55 54 54 54 54 54 54 55 55 56 56 57 57 52 42 45 36 33 27 29 45 29 26 25 26 26 28 28 25 24 23 24 23 21 22 24 27 19 21 14 18 16 16 11 14 14 15 16 16 10 7 13 10 6 10 22 27 24 27 28 24 27 30 31 31 34 38 39 38 38 38 38 40 41 42 43 43 43 43
53 53 53 53 54 54 54 54 55 54 54 53 53 53 54 55 55 55 56 56 55 54 49 39 42 42 30 28 32 30 30 31 29 28 26 30 27 24 24 22 22 22 21 20 26 18 18 15 19 19 19 12 10 15 13 15 15 14 19 15 16 8 10 17 11 28 29 29 28 29 28 29 30 32 34 37 38 37 37 37 38 39 39 40 40 41 41 42
53 53 53 53 53 54 54 54 55 55 53 53 53 53 52 54 55 53 52 52 52 52 49 47 37 30 26 27 27 28 31 30 27 28 27 27 23 23 23 22 25 22 20 20 19 15 17 16 19 14 19 17 14 17 15 10 13 12 15 20 17 18 16 12 19 26 29 30 29 30 30 30 31 32 34 35 36 37 37 38 38 38 38 39 40 40 40 41
53 53 53 53 53 54 54 54 54 54 52 52 52 53 54 54 48 45 46 46 39 34 32 33 36 28 23 26 31 33 32 30 28 26 24 25 33 27 31 27 23 21 19 19 19 17 17 20 21 18 16 18 14 14 13 12 13 11 13 13 17 19 20 21 24 25 29 28 29 29 29 30 31 32 33 36 37 37 37 38 38 39 39 39 39 40 40 41
53 53 53 53 53 53 53 54 54 53 52 50 48 48 47 45 41 39 45 44 34 32 32 31 35 33 34 36 35 35 32 26 25 25 26 26 41 21 21 22 22 22 21 22 22 18 22 21 18 16 17 18 17 15 14 14 12 13 16 18 20 21 22 24 25 27 28 28 27 28 29 29 30 31 33 35 36 37 37 37 38 38 39 39 39 39 40 41
53 52 53 53 53 53 53 53 52 52 52 50 47 46 42 42 35 37 43 43 43 42 39 38 36 36 36 37 37 32 22 22 25 23 25 32 22 20 18 20 19 18 20 22 22 22 22 22 23 22 20 18 20 17 18 18 21 20 20 20 20 22 22 25 25 26 26 28 27 29 30 30 31 33 34 36 36 35 36 37 37 38 38 39 39 40 40 41
52 52 52 53 53 53 53 52 52 52 52 48 46 43 44 44 45 45 42 33 37 43 41 40 40 39 38 37 39 26 23 21 20 21 22 23 19 17 18 19 18 18 19 22 26 24 21 17 18 19 23 21 22 21 20 20 20 22 19 21 22 23 24 26 27 28 29 29 27 30 30 31 32 34 36 36 36 37 37 38 38 38 38 39 39 40 41 41
52 52 52 53 53 53 52 51 51 51 49 48 46 45 45 47 50 50 44 41 39 41 37 29 26 26 26 29 27 24 21 20 20 21 23 22 19 19 21 18 19 19 19 20 20 24 21 19 20 23 21 21 21 23 24 23 23 21 21 21 21 25 21 22 27 31 29 28 28 30 31 31 33 34 35 36 38 38 39 39 38 39 39 39 39 40 40 41
52 52 52 52 52 52 51 50 50 48 48 49 46 47 48 50 51 45 41 33 35 39 38 31 28 29 27 25 27 23 21 21 21 20 29 21 19 20 18 19 18 19 19 22 21 20 19 20 23 25 22 20 18 20 21 22 22 22 23 22 22 25 24 24 25 29 29 29 30 30 30 30 31 33 34 35 37 38 38 39 39 39 40 41 41 41 43 41
51 51 52 52 52 51 50 50 46 46 48 46 46 47 50 51 51 46 41 33 33 31 38 30 30 31 27 29 26 22 23 23 23 23 27 23 21 18 18 21 22 19 19 23 23 22 23 22 23 24 24 22 20 20 20 19 17 21 27 24 23 24 25 26 27 27 27 28 29 27 23 26 30 32 33 34 36 36 37 38 38 39 39 40 40 40 41 42
51 51 51 51 51 50 50 44 43 48 47 43 44 47 52 52 51 44 35 30 26 29 31 28 31 26 30 27 28 24 23 20 22 25 34 24 30 19 26 20 23 21 20 20 23 25 23 25 23 21 22 22 22 22 22 19 18 22 21 25 24 25 26 25 24 26 24 25 28 29 23 20 27 30 32 33 35 35 36 37 38 39 40 40 41 41 41 41
51 51 50 51 51 50 44 41 43 48 42 43 46 51 52 53 52 46 35 23 21 29 30 30 30 27 30 30 28 22 18 19 26 28 26 30 22 25 23 23 28 28 22 24 26 22 26 24 20 22 21 20 20 20 21 20 19 19 20 24 24 25 25 24 23 23 23 31 31 31 25 24 23 28 33 34 35 35 35 36 37 39 39 40 41 41 41 41
51 51 50 50 50 50 42 46 47 44 43 44 51 52 53 53 48 44 27 16 18 30 30 30 32 33 31 30 25 22 21 22 18 23 28 29 24 25 26 26 26 28 30 22 18 23 26 24 22 20 21 21 19 20 22 20 18 18 21 25 24 24 24 24 24 29 29 25 23 27 30 23 23 27 34 34 33 33 34 35 36 37 38 39 40 40 41 41
51 51 50 50 50 50 49 47 45 43 47 52 52 52 54 47 43 33 24 18 27 34 33 37 36 30 30 27 24 28 25 23 21 24 27 26 27 24 25 25 29 30 30 26 24 25 30 26 26 21 21 21 21 21 21 21 22 27 28 32 32 32 33 31 30 28 26 21 18 23 28 20 21 27 31 32 32 32 34 35 36 37 38 39 39 40 41 42
50 50 50 50 48 49 48 49 47 48 52 52 51 52 48 45 35 29 18 18 33 30 35 34 31 29 31 28 26 28 21 23 24 24 25 26 28 28 28 31 33 32 29 31 28 28 30 40 36 28 26 24 21 20 24 23 23 29 28 26 26 26 28 31 27 27 24 17 21 26 30 23 20 27 31 30 30 32 33 35 36 37 37 39 40 40 41 41
50 50 50 50 45 47 47 43 46 47 51 51 52 49 43 35 29 19 18 26 37 36 34 31 31 32 31 29 26 29 23 25 21 23 24 31 30 30 29 24 29 27 29 29 27 30 28 29 28 29 36 29 22 23 25 26 27 28 27 25 24 25 24 24 24 24 18 16 21 24 30 24 20 23 28 31 33 33 33 34 34 35 36 38 39 40 41 42
49 49 49 48 47 49 43 41 44 47 51 52 46 43 40 28 29 24 24 36 27 30 30 30 35 32 33 33 27 28 21 22 25 25 25 29 30 29 27 23 27 21 23 24 22 28 26 27 27 30 44 28 24 22 24 26 25 26 25 24 21 15 19 15 20 16 15 19 22 29 26 24 22 25 28 30 31 33 34 34 34 35 36 38 39 40 41 42
49 49 49 50 49 47 48 47 50 50 51 50 41 38 29 22 18 25 30 32 26 31 30 34 33 33 33 27 26 28 26 22 22 24 31 30 31 30 32 30 30 24 20 24 27 25 23 26 28 31 29 33 24 21 21 22 24 23 23 22 20 13 12 11 10 17 19 21 27 28 28 23 26 27 30 30 31 33 34 35 36 36 36 37 39 40 41 40
48 49 47 49 49 49 49 52 50 50 48 46 39 34 29 23 22 43 30 30 30 36 34 31 33 33 29 26 27 27 18 20 22 22 27 27 28 26 28 29 30 30 30 28 24 24 17 21 26 30 28 31 27 24 23 24 25 22 24 22 22 20 15 9 16 11 13 21 24 27 23 22 22 25 31 32 33 35 35 35 36 37 37 38 38 39 40 40
48 48 46 47 49 50 50 50 50 53 43 39 33 29 22 22 26 27 28 29 32 34 31 35 32 28 26 29 30 28 18 18 24 28 25 25 21 24 24 24 27 33 31 24 22 27 24 22 27 30 31 33 29 30 25 22 22 23 25 23 21 20 23 16 19 19 20 21 19 25 21 23 25 29 36 35 34 35 39 36 40 37 39 39 38 39 39 39
46 44 49 49 53 54 51 51 50 48 41 35 31 28 21 28 26 30 29 34 34 30 31 30 29 26 25 26 30 29 30 19 21 24 23 25 26 25 27 27 27 28 25 20 24 24 24 23 28 32 32 32 30 31 27 22 18 24 20 19 21 25 24 19 19 23 20 17 13 18 25 27 29 30 31 33 33 33 33 36 36 37 38 38 38 38 38 39
44 48 45 49 51 53 53 51 51 45 38 34 30 24 29 31 32 34 41 31 31 33 29 23 25 24 24 23 24 28 29 22 24 21 20 24 22 27 28 28 28 30 29 30 28 28 23 23 29 28 29 30 33 30 28 29 26 24 20 21 28 31 27 21 14 13 10 11 12 23 22 23 22 19 31 31 32 32 32 34 35 35 36 37 38 38 38 38
45 47 50 52 53 53 53 52 48 41 38 34 30 40 35 30 35 34 34 34 33 33 27 25 26 28 24 24 25 28 29 19 23 23 20 26 22 26 29 28 27 30 32 32 24 26 29 21 25 28 30 30 31 27 27 28 30 24 22 27 23 14 18 23 18 11 11 11 9 19 22 22 23 24 27 28 30 31 31 31 32 33 35 37 37 38 38 39
46 45 42 46 50 53 53 50 44 40 34 31 28 29 34 34 36 32 35 35 35 33 27 28 26 28 27 24 27 29 29 22 25 23 18 21 22 28 30 27 26 32 36 34 30 31 29 19 23 28 28 30 29 27 21 26 30 31 26 25 30 25 23 17 15 20 19 5 12 15 21 18 25 25 28 29 29 30 30 28 30 32 34 37 37 37 37 37
44 43 41 46 51 53 53 49 42 38 34 28 29 30 34 31 33 37 38 35 32 30 28 28 31 26 29 27 28 23 28 27 24 23 23 23 26 27 29 31 27 28 33 36 31 33 26 25 14 25 28 27 24 28 26 27 26 28 25 23 24 24 26 23 23 20 16 7 7 9 10 19 25 28 28 29 29 29 29 28 29 30 32 35 37 37 37 37
44 41 41 48 49 50 47 43 39 34 34 34 35 33 34 32 35 36 38 38 34 37 32 30 30 26 28 25 25 30 26 28 27 24 25 27 25 20 28 30 31 25 30 31 32 29 23 23 16 23 26 25 25 30 31 31 32 28 25 22 23 21 17 14 14 23 21 16 11 12 12 20 24 31 29 29 29 29 28 28 28 29 31 34 36 37 37 37
41 36 40 48 50 46 43 37 35 37 33 32 31 35 32 44 35 35 36 35 33 31 35 34 34 31 30 28 27 27 26 24 27 25 27 25 29 27 29 31 31 29 26 22 28 33 28 25 24 19 25 26 29 31 34 36 35 33 28 25 27 23 21 17 10 16 19 20 21 19 13 15 28 33 30 29 28 27 27 27 27 29 31 34 36 37 37 38
38 37 44 49 49 44 38 32 35 34 32 34 39 35 36 35 35 36 32 34 31 33 31 32 32 28 30 27 28 26 27 24 28 24 27 31 29 31 30 31 35 34 34 31 30 31 46 24 21 24 24 26 26 28 35 37 35 30 30 30 28 24 25 22 20 21 17 18 16 13 12 17 26 34 34 31 32 31 30 28 27 32 35 36 36 36 36 37
39 39 43 49 48 44 37 30 30 30 34 36 36 35 38 34 34 31 32 33 31 31 30 31 31 31 29 31 28 26 28 20 26 25 24 29 27 30 35 36 36 32 27 28 27 31 24 24 23 15 14 18 21 24 27 29 32 29 27 29 31 30 29 26 25 23 17 21 20 15 9 13 25 34 34 29 28 28 28 30 34 34 35 36 36 36 36 37
40 41 43 45 44 43 34 34 32 26 36 34 34 34 35 36 36 33 33 33 35 32 30 30 31 32 30 32 30 31 32 26 24 28 26 30 30 33 32 37 38 33 36 39 41 34 25 25 22 14 12 12 10 6 11 16 26 27 31 30 31 29 27 25 20 19 17 19 20 13 11 19 23 29 28 27 26 26 28 30 34 35 35 36 36 36 36 36
38 32 36 36 38 40 39 40 38 35 34 33 31 34 36 34 35 37 36 34 34 35 30 32 32 32 31 29 28 30 29 32 26 25 28 27 29 29 32 36 37 34 45 47 42 34 26 27 24 20 14 18 14 19 24 30 28 26 28 30 29 30 28 25 23 19 20 19 19 21 20 22 23 24 26 26 26 25 26 32 34 35 36 36 35 35 36 36
40 33 32 30 36 36 35 37 36 36 33 35 31 34 34 35 35 34 35 30 34 31 32 31 32 27 27 29 27 28 30 30 32 29 30 29 30 30 34 36 35 45 46 45 41 29 25 26 27 24 23 25 25 27 29 32 28 28 28 29 30 29 28 26 21 21 25 23 19 25 25 22 24 25 26 28 28 28 29 31 34 34 35 36 36 35 41 38
35 36 36 37 32 30 32 32 37 36 36 34 32 35 34 35 33 30 34 35 35 33 27 29 30 32 29 28 28 23 26 27 28 25 31 32 30 29 30 33 35 40 40 35 40 31 24 17 23 28 27 27 29 29 31 31 31 29 30 29 29 29 27 26 25 27 25 21 24 25 25 24 25 26 27 28 28 26 27 29 32 35 35 35 32 33 34 35
40 39 39 40 33 34 34 34 38 37 36 35 34 35 34 35 34 34 32 31 32 30 29 22 26 30 32 31 28 25 26 23 23 27 28 28 29 27 27 30 34 34 34 33 34 31 28 23 25 29 27 27 27 29 31 30 28 28 28 29 30 30 30 29 29 27 27 26 27 27 25 26 27 27 28 29 30 27 28 30 34 34 34 34 32 32 33 34
41 38 37 40 37 35 36 37 38 35 33 38 32 34 35 36 35 36 35 31 27 30 35 28 29 32 34 32 29 25 28 28 27 25 28 29 29 28 25 29 29 32 33 31 34 34 28 19 33 26 22 24 26 30 30 29 27 26 27 27 28 29 29 30 28 28 29 28 28 27 26 26 29 30 30 31 31 32 33 32 31 33 35 34 32 33 33 34
45 44 44 37 34 35 38 35 35 34 32 34 34 36 36 36 36 36 34 35 32 31 32 31 33 33 34 32 30 29 31 31 30 30 32 31 27 32 26 28 30 27 29 30 32 33 29 22 26 24 20 21 24 27 27 27 27 26 26 26 25 28 28 29 28 31 28 27 26 26 26 27 29 31 32 31 31 30 29 31 32 33 34 35 33 33 34 34
44 44 42 38 33 40 34 36 34 33 30 33 36 35 35 36 38 36 31 35 36 35 36 34 35 31 30 30 30 31 34 33 32 32 34 33 32 34 31 32 30 29 26 29 31 30 28 27 24 21 20 14 22 25 25 24 21 20 21 23 25 26 28 28 29 32 32 29 25 21 27 29 30 33 27 28 29 28 30 32 32 32 34 34 33 33 34 34